Weather in Barth

Germany     54°21′21″N   12°43′22″E
temp.,
°C
wind,
m/s
gust,
m/s
humid.,
%
clouds,
%
prec.,
mm/h
press.,
hPa
HPBL,
m
7 march, sun
sun701:00+2wnw91373100 0.0 10231043
04:00+2w91475100 0.0 10211005
07:00+2w101478100 0.0 1019922
10:00+3w91375100 0.0 1019993
13:00+4w101479100 0.1 1018840
16:00+4wnw81288100 0.3 1016822
19:00+2n41170100 0.4 1017457
22:000nne4106251 0.0 1019259
8 march, mon
mon801:00−1nne236344 0.0 102036
04:000nnw347217 0.0 102168
07:00−1nne237212 0.0 102248
10:00+3nne455039 0.0 1024982
13:00+4nne344352 0.0 1024941
16:00+3nne324444 0.0 1024652
19:00−1ene226064 0.0 102324
22:00−2se236589 0.0 102351
9 march, tue
tue901:00−2s366295 0.0 1023160
04:00−2sse356589 0.0 1021101
07:00−2sse356744 0.0 1021138
10:00+3s45500 0.0 1021411
13:00+5s33390 0.0 10201408
16:00+5s33420 0.0 10191562
19:000sse22590 0.0 101925
22:00−1se33630 0.0 102044
10 march, wed
wed1001:00−1s23650 0.0 102035
04:00−2s23650 0.0 102048
07:00−2s33650 0.0 102078
10:00+3s46520 0.0 1020430
13:00+6s575612 0.0 10201065
16:00+6ssw576679 0.0 10181067
19:00+4sse5107989 0.0 1016278
22:00+3sse71484100 0.0 1014386
11 march, thu
thu1101:00+4s81585100 0.0 1010551
04:00+4s91688100 0.9 1004896
07:00+5s91793100 4.9 1000679
10:00+7ssw91792100 3.6 997756
13:00+11wsw81478100 5.2 9961172
16:00+10wsw11196567 0.4 9941874
19:00+6wsw10187879 0.8 9961307
22:00+5wsw716857 0.0 998778